Location: Shannon
(40.5500°S, 175.4167°E)
Time: 09:25:00
(UTC+00:00)

Cosmos 2297 Rocket - Pass Details

Date: 17 November 2025
Orbit: 837 x 844 km, 71.0° (Epoch: 14 December)

Event Time Altitude Azimuth Distance (km) Brightness Sun altitude
Exits shadow 14:17:37 17° 259° (WSW) 2,023 3.9 -22.6°
Maximum altitude 14:19:38 20° 232° (SW) 1,860 4.0 -22.4°
Drops below altitude 10° 14:23:48 10° 185° (S) 2,489 5.3 -22.0°
Sets 14:26:56 0° 168° (SSE) 3,429 6.5 -21.6°
